TimeEST,TemperatureF,Dew PointF,Humidity,Sea Level PressureIn,VisibilityMPH,Wind Direction,Wind SpeedMPH,Gust SpeedMPH,PrecipitationIn,Events,Conditions,WindDirDegrees,DateUTC
12:54 AM,21.9,17.1,82,29.98,2.0,WNW,15.0,-,0.00,Snow,Light Snow,290,2013-02-21 05:54:00
1:08 AM,21.2,17.6,86,29.96,1.2,WNW,21.9,28.8,0.01,Snow,Light Snow,290,2013-02-21 06:08:00
1:49 AM,21.2,17.6,86,29.96,0.8,WNW,17.3,28.8,0.01,Snow,Light Snow,300,2013-02-21 06:49:00
1:54 AM,21.0,17.1,85,29.99,0.8,WNW,16.1,28.8,0.01,Snow,Light Snow,290,2013-02-21 06:54:00
2:15 AM,21.2,15.8,80,29.96,1.0,NW,19.6,29.9,0.00,Snow,Light Snow,310,2013-02-21 07:15:00
2:23 AM,19.4,15.8,86,29.96,1.5,WNW,20.7,29.9,0.00,Snow,Light Snow,300,2013-02-21 07:23:00
2:40 AM,19.4,14.0,80,29.96,3.0,WNW,17.3,26.5,0.00,Snow,Light Snow,300,2013-02-21 07:40:00
2:48 AM,19.4,14.0,80,29.96,2.5,WNW,24.2,31.1,0.00,Snow,Light Snow,300,2013-02-21 07:48:00
2:54 AM,19.9,12.9,74,29.99,2.5,WNW,20.7,31.1,0.00,Snow,Light Snow,290,2013-02-21 07:54:00
3:15 AM,19.4,12.2,74,29.97,1.2,WNW,21.9,32.2,0.00,Snow,Light Snow,300,2013-02-21 08:15:00
3:17 AM,19.4,12.2,74,29.97,1.0,WNW,25.3,32.2,0.00,Snow,Light Snow,300,2013-02-21 08:17:00
3:33 AM,19.4,12.2,74,29.97,1.5,WNW,18.4,33.4,0.00,Snow,Light Snow,300,2013-02-21 08:33:00
3:36 AM,19.4,14.0,80,29.97,0.8,WNW,23.0,27.6,0.00,Snow,Light Snow,300,2013-02-21 08:36:00
3:46 AM,19.4,15.8,86,29.97,0.5,WNW,19.6,28.8,0.00,Fog-Snow,Snow,300,2013-02-21 08:46:00
3:54 AM,19.0,15.1,85,29.99,0.8,WNW,15.0,-,0.00,Snow,Light Snow,300,2013-02-21 08:54:00
4:04 AM,17.6,14.0,86,29.98,1.2,NW,17.3,28.8,0.00,Snow,Light Snow,310,2013-02-21 09:04:00
4:23 AM,17.6,12.2,79,29.99,1.0,WNW,20.7,31.1,0.00,Snow,Light Snow,300,2013-02-21 09:23:00
4:32 AM,17.6,12.2,79,29.99,1.2,WNW,20.7,28.8,0.00,Snow,Light Snow,300,2013-02-21 09:32:00
4:40 AM,17.6,12.2,79,29.99,1.0,WNW,20.7,29.9,0.00,Snow,Light Snow,290,2013-02-21 09:40:00
4:50 AM,17.6,12.2,79,30.00,1.2,WNW,15.0,-,0.00,Snow,Light Snow,300,2013-02-21 09:50:00
4:54 AM,17.1,12.0,81,30.03,1.0,WNW,13.8,-,0.00,Snow,Light Snow,290,2013-02-21 09:54:00
5:09 AM,15.8,12.2,86,30.01,0.8,WNW,13.8,-,0.00,Snow,Light Snow,290,2013-02-21 10:09:00
5:17 AM,15.8,12.2,86,30.02,0.5,WNW,10.4,-,0.00,Fog-Snow,Snow,290,2013-02-21 10:17:00
5:31 AM,15.8,12.2,86,30.03,0.5,NW,15.0,20.7,0.00,Fog-Snow,Snow,310,2013-02-21 10:31:00
5:41 AM,15.8,10.4,79,30.03,0.8,NW,12.7,-,0.00,Snow,Light Snow,320,2013-02-21 10:41:00
5:52 AM,15.8,10.4,79,30.04,1.0,NW,12.7,21.9,0.00,Snow,Light Snow,310,2013-02-21 10:52:00
5:54 AM,15.1,10.0,80,30.07,1.2,WNW,13.8,21.9,0.00,Snow,Light Snow,300,2013-02-21 10:54:00
6:08 AM,15.8,10.4,79,30.04,0.8,NW,16.1,-,0.00,Snow,Light Snow,310,2013-02-21 11:08:00
6:23 AM,14.0,10.4,86,30.06,1.2,NW,10.4,-,0.00,Snow,Light Snow,320,2013-02-21 11:23:00
6:54 AM,12.9,8.1,81,30.11,1.5,NW,16.1,21.9,0.00,Snow,Light Snow,320,2013-02-21 11:54:00
7:00 AM,12.2,8.6,85,30.09,3.0,NW,15.0,-,0.00,Snow,Light Snow,320,2013-02-21 12:00:00
7:08 AM,12.2,6.8,79,30.09,4.0,NW,15.0,-,0.00,Snow,Light Snow,310,2013-02-21 12:08:00
7:54 AM,12.0,5.0,73,30.14,9.0,NW,13.8,-,0.00,,Overcast,310,2013-02-21 12:54:00
8:54 AM,12.0,5.0,73,30.16,7.0,NW,13.8,20.7,0.00,,Overcast,310,2013-02-21 13:54:00
9:34 AM,12.2,6.8,79,30.15,2.0,NW,9.2,-,0.00,Snow,Light Snow,320,2013-02-21 14:34:00
9:54 AM,12.0,7.0,80,30.19,1.8,NW,10.4,-,0.00,Snow,Light Snow,310,2013-02-21 14:54:00
10:07 AM,12.2,6.8,79,30.16,2.5,NW,13.8,-,0.00,Snow,Light Snow,310,2013-02-21 15:07:00
10:54 AM,12.9,7.0,77,30.21,2.5,WNW,16.1,-,0.00,Snow,Light Snow,300,2013-02-21 15:54:00
11:20 AM,12.2,6.8,79,30.20,1.5,NW,16.1,-,0.00,Snow,Light Snow,310,2013-02-21 16:20:00
11:50 AM,14.0,8.6,79,30.19,1.0,WNW,11.5,-,0.00,Snow,Light Snow,300,2013-02-21 16:50:00
11:54 AM,14.0,9.0,80,30.22,1.2,West,11.5,-,0.00,Snow,Light Snow,280,2013-02-21 16:54:00
12:51 PM,15.8,8.6,73,30.19,1.0,WNW,15.0,-,0.00,Snow,Light Snow,300,2013-02-21 17:51:00
1:38 PM,15.8,10.4,79,30.20,2.0,NW,16.1,-,0.00,Snow,Light Snow,310,2013-02-21 18:38:00
1:54 PM,16.0,10.0,77,30.23,2.0,WNW,16.1,-,0.00,Snow,Light Snow,300,2013-02-21 18:54:00
2:08 PM,15.8,10.4,79,30.21,1.8,NW,10.4,-,0.00,Snow,Light Snow,310,2013-02-21 19:08:00
2:24 PM,15.8,10.4,79,30.21,2.0,WNW,10.4,20.7,0.00,Snow,Light Snow,300,2013-02-21 19:24:00
2:47 PM,15.8,10.4,79,30.22,2.5,NW,11.5,-,0.00,Snow,Light Snow,310,2013-02-21 19:47:00
2:54 PM,17.1,10.0,74,30.25,2.5,NW,12.7,-,0.00,Snow,Light Snow,310,2013-02-21 19:54:00
3:39 PM,17.6,10.4,73,30.25,3.0,NW,9.2,-,0.00,Snow,Light Snow,310,2013-02-21 20:39:00
3:54 PM,17.1,10.9,77,30.28,3.0,NW,9.2,-,0.00,Snow,Light Snow,310,2013-02-21 20:54:00
4:54 PM,18.0,10.9,74,30.31,7.0,WNW,6.9,-,0.00,,Overcast,300,2013-02-21 21:54:00
5:54 PM,19.0,12.0,74,30.33,8.0,Calm,Calm,-,0.00,,Overcast,0,2013-02-21 22:54:00
7:54 PM,21.0,15.1,78,30.40,10.0,WSW,8.1,-,N/A,,Overcast,250,2013-02-22 00:54:00
8:54 PM,19.9,16.0,85,30.43,10.0,SSW,4.6,-,N/A,,Overcast,210,2013-02-22 01:54:00
9:18 PM,19.4,15.8,86,30.39,10.0,WSW,4.6,-,N/A,,Overcast,240,2013-02-22 02:18:00
9:25 PM,19.4,15.8,86,30.39,10.0,SW,4.6,-,N/A,,Overcast,230,2013-02-22 02:25:00
9:54 PM,19.9,16.0,85,30.43,10.0,SW,3.5,-,N/A,,Overcast,220,2013-02-22 02:54:00
10:54 PM,19.0,15.1,85,30.42,10.0,Calm,Calm,-,N/A,,Overcast,0,2013-02-22 03:54:00
11:54 PM,18.0,15.1,88,30.41,10.0,ESE,3.5,-,N/A,,Overcast,120,2013-02-22 04:54:00